[[{"header":{"parameterUnit":"m.s-1","parameterCategory":1,"la1":30.2991,"la2":30.254,"lo1":-89.0895,"lo2":-89.0444,"dy":0.0017,"dx":0.0017,"nx":28,"ny":28,"refTime":"2025-04-22T21:00:00:Z","depth":0,"parameterNumber":2,"parameterNumberName":"U-component_of_WINDS"},"data":[0,0,0,0,0,0,0,0,0,0,0,0,0,0,0,0,0,0,0,0,0,0,0,0,0,0,0,0,0,0,0,0,0,0,0,0,0,0,0,0,0,0,0,0,0,0,0,0,0,0,0,0,0,0,0,0,0,0,-2.59,-2.59,0,-2.5883,-2.5882,-2.5882,-2.5809,-2.5808,-2.5806,-2.5804,-2.5787,-2.5789,-2.579,0,0,0,0,0,0,0,0,0,0,0,0,0,-2.5873,-2.5874,-2.59,-2.59,-2.59,-2.5883,-2.5882,-2.5882,-2.581,-2.5808,-2.5806,-2.5804,-2.5787,-2.5788,-2.579,0,0,0,0,0,0,0,0,0,0,0,0,0,-2.5873,-2.5874,-2.59,-2.5861,-2.5858,-2.5883,-2.5882,-2.5882,-2.581,-2.5808,-2.5805,-2.5803,-2.5787,-2.5788,-2.579,-2.5851,0,0,-2.5795,-2.5796,0,0,0,0,0,0,0,0,-2.5873,-2.5874,-2.5867,-2.5864,-2.586,-2.5845,-2.5867,-2.5872,-2.5811,-2.5828,-2.5804,-2.5801,-2.5809,-2.5809,-2.5811,-2.585,-2.585,-2.5795,-2.5796,-2.5797,-2.5798,0,0,0,0,0,0,0,-2.5873,-2.5874,-2.5893,-2.5867,-2.5863,-2.5846,-2.5843,-2.5867,-2.5833,-2.5826,-2.5821,-2.582,-2.5806,-2.581,-2.581,-2.5849,-2.5795,-2.5797,-2.5798,-2.5798,-2.594,-2.5943,0,0,0,0,0,0,-2.5878,-2.5875,-2.5894,-2.5893,-2.586,-2.5848,-2.5845,-2.5853,-2.5833,-2.5827,-2.5822,-2.5817,-2.5808,-2.5808,-2.5809,-2.588,-2.5797,-2.5799,-2.58,-2.5937,-2.5941,-2.5944,0,0,0,0,0,0,-2.5878,-2.5881,-2.5894,-2.5882,-2.5883,-2.5851,-2.5861,-2.5854,-2.5857,-2.5829,-2.5823,-2.5831,-2.5806,-2.5807,-2.5842,-2.5878,-2.5799,-2.5801,-2.5934,-2.5938,-2.5942,-2.6022,0,0,0,0,0,0,-2.5878,-2.5881,-2.5903,-2.5883,-2.5884,-2.5926,-2.5863,-2.5855,-2.586,-2.5852,-2.5836,-2.5831,-2.5804,-2.5839,-2.5843,-2.5879,-2.5802,-2.5931,-2.5936,-2.5941,-2.6016,-2.6028,-2.6039,0,0,0,0,0,-2.5877,-2.5926,-2.5905,-2.5907,-2.5911,-2.5929,-2.5929,-2.5896,-2.5863,-2.5885,-2.5868,-2.5832,-2.5874,-2.5844,-2.5847,-2.5884,-2.5928,-2.5934,-2.594,-2.6011,-2.6026,-2.6039,0,0,0,0,0,0,-2.5951,-2.5923,-2.5898,-2.5943,-2.5939,-2.5916,-2.5943,-2.5913,-2.5918,-2.5911,-2.5871,-2.5868,-2.5909,-2.59,-2.5867,-2.5943,-2.5895,-2.5902,-2.5947,-2.5961,-2.5973,-2.5973,-2.5804,0,0,0,0,0,-2.5972,-2.5989,-2.5964,-2.6005,-2.6005,-2.5975,-2.5981,-2.5957,-2.5951,-2.5949,-2.5934,-2.5931,-2.5943,-2.5952,-2.5962,-2.6015,-2.6011,-2.6043,-2.6054,-2.6064,-2.607,-2.6098,-2.6112,-2.5964,-2.5964,-2.5964,0,0,-2.6016,-2.6003,-2.6016,-2.602,-2.6014,-2.6032,-2.5974,-2.5995,-2.6009,-2.5952,-2.5984,-2.5974,-2.5967,-2.6012,-2.6031,-2.6006,-2.6111,-2.6072,-2.6079,-2.608,-2.6106,-2.612,-2.6133,-2.5968,-2.5967,-2.5967,0,0,-2.6107,-2.6098,-2.6132,-2.6128,-2.612,-2.61,-2.6109,-2.6092,-2.6083,-2.6114,-2.6072,-2.6089,-2.6111,-2.6108,-2.611,-2.6202,-2.6169,-2.6207,-2.6267,-2.6295,-2.6307,-2.6317,-2.635,-2.6362,-2.6214,-2.6214,-2.6214,0,-2.6162,-2.6188,-2.6154,-2.6179,-2.6182,-2.6133,-2.6167,-2.6165,-2.6161,-2.6165,-2.6137,-2.6165,-2.6157,-2.6201,-2.6224,-2.6227,-2.6236,-2.6208,-2.6308,-2.6317,-2.6326,-2.6358,-2.637,-2.6218,-2.6218,-2.6218,-2.6217,0,-2.6258,-2.6277,-2.6306,-2.6303,-2.631,-2.634,-2.6311,-2.6322,-2.6298,-2.6282,-2.6316,-2.6305,-2.6312,-2.6321,-2.6298,-2.6363,-2.6347,-2.6315,-2.6265,-2.6346,-2.6374,-2.6386,-2.6225,-2.6223,-2.6222,-2.6221,0,0,-2.6391,-2.6371,-2.6382,-2.6381,-2.637,-2.6384,-2.6413,-2.6421,-2.6432,-2.6432,-2.6455,-2.6476,-2.6446,-2.6448,-2.6424,-2.645,-2.6524,-2.6413,-2.6413,-2.6434,-2.6595,-2.662,-2.6634,-2.6503,-2.6505,-2.6507,-2.6596,0,-2.6477,-2.6524,-2.6495,-2.6547,-2.6564,-2.6519,-2.6544,-2.6541,-2.6527,-2.6541,-2.6526,-2.6542,-2.6501,-2.6502,-2.6525,-2.651,-2.6556,-2.6504,-2.6525,-2.6526,-2.6526,-2.6649,-2.6674,-2.6758,-2.6607,-2.6609,-2.661,0,-2.6582,-2.6587,-2.6641,-2.6628,-2.6634,-2.6657,-2.6663,-2.6677,-2.6673,-2.6661,-2.6665,-2.6636,-2.6664,-2.6617,-2.6656,-2.6621,-2.6628,-2.6623,-2.6625,-2.6625,-2.6572,-2.6651,-2.6784,-2.6797,-2.6627,-2.6626,-2.6625,0,-2.6674,-2.6694,-2.6729,-2.673,-2.6716,-2.6733,-2.6728,-2.6722,-2.6729,-2.6734,-2.6739,-2.6748,-2.6752,-2.676,-2.6735,-2.6703,-2.6778,-2.6728,-2.6769,-2.677,-2.6785,-2.6784,-2.6921,-2.6792,-2.6792,-2.6792,-2.6791,0,-2.6772,-2.6807,-2.677,-2.6792,-2.683,-2.6798,-2.6836,-2.6827,-2.6822,-2.6841,-2.6803,-2.6823,-2.6788,-2.6804,-2.6785,-2.682,-2.6823,-2.6815,-2.6809,-2.6818,-2.6819,-2.6821,-2.6814,-2.6795,-2.6794,-2.6794,-2.6793,0,-2.688,-2.6857,-2.6892,-2.6877,-2.6874,-2.6903,-2.689,-2.691,-2.6895,-2.692,-2.6924,-2.69,-2.6918,-2.6894,-2.6908,-2.6895,-2.6944,-2.693,-2.6945,-2.6941,-2.6983,-2.698,-2.7125,-2.7143,-2.7004,-2.7005,-2.7006,0,-2.6943,-2.6969,-2.6957,-2.6967,-2.6965,-2.6982,-2.6989,-2.6959,-2.6969,-2.6968,-2.6988,-2.7002,-2.7012,-2.7042,-2.7026,-2.7038,-2.7023,-2.7074,-2.7025,-2.7033,-2.7024,-2.7022,-2.7025,-2.7083,-2.7085,-2.7086,-2.7087,0,-2.7059,-2.7047,-2.7058,-2.7067,-2.7077,-2.7083,-2.7085,-2.7096,-2.7065,-2.7078,-2.7095,-2.7103,-2.7119,-2.7134,-2.7142,-2.7137,-2.7108,-2.7103,-2.7113,-2.7122,-2.713,-2.7126,-2.6972,-2.71,-2.7098,-2.7097,-2.7097,-2.7096,-2.7146,-2.7167,-2.7162,-2.7177,-2.7177,-2.7181,-2.7199,-2.7187,-2.7201,-2.7211,-2.7193,-2.7215,-2.7213,-2.722,-2.722,-2.7237,-2.7215,-2.723,-2.7234,-2.7238,-2.7244,-2.7128,-2.7239,-2.7238,-2.7238,-2.7238,-2.7237,0,-2.7259,-2.7254,-2.7269,-2.7274,-2.7286,-2.7258,-2.726,-2.7273,-2.7293,-2.7293,-2.7304,-2.7325,-2.734,-2.7327,-2.7339,-2.7356,-2.7343,-2.736,-2.7358,-2.7358,-2.7263,-2.7253,-2.737,-2.737,-2.737,-2.737,-2.737,-2.737,-2.7319,-2.7354,-2.7342,-2.7377,-2.7371,-2.7393,-2.7397,-2.7401,-2.7401,-2.7426,-2.7438,-2.743,-2.7425,-2.7437,-2.745,-2.7446,-2.7452,-2.7474,-2.7466,-2.7377,-2.7364,-2.7352,-2.7342,-2.7476,-2.7476,-2.7558,-2.7559,-2.756]},{"header":{"parameterUnit":"m.s-1","parameterCategory":1,"la1":30.2991,"la2":30.254,"lo1":-89.0895,"lo2":-89.0444,"dy":0.0017,"dx":0.0017,"nx":28,"ny":28,"refTime":"2025-04-22T21:00:00:Z","depth":0,"parameterNumber":3,"parameterNumberName":"V-component_of_WINDS"},"data":[0,0,0,0,0,0,0,0,0,0,0,0,0,0,0,0,0,0,0,0,0,0,0,0,0,0,0,0,0,0,0,0,0,0,0,0,0,0,0,0,0,0,0,0,0,0,0,0,0,0,0,0,0,0,0,0,0,0,2.1238,2.1238,0,2.1286,2.1286,2.1287,2.1333,2.1333,2.1334,2.1334,2.1381,2.1382,2.1383,0,0,0,0,0,0,0,0,0,0,0,0,0,2.1185,2.1185,2.1238,2.1238,2.1239,2.1286,2.1286,2.1287,2.1333,2.1333,2.1334,2.1335,2.1381,2.1382,2.1383,0,0,0,0,0,0,0,0,0,0,0,0,0,2.1218,2.1186,2.1238,2.1267,2.127,2.1286,2.1286,2.1287,2.1332,2.1333,2.1334,2.1335,2.1381,2.1382,2.1383,2.1372,0,0,2.1386,2.1386,0,0,0,0,0,0,0,0,2.1216,2.1219,2.1262,2.1265,2.1269,2.1304,2.1285,2.1315,2.1332,2.1309,2.1334,2.1335,2.1355,2.1358,2.1365,2.1374,2.1376,2.1386,2.1387,2.1387,2.1388,0,0,0,0,0,0,0,2.1213,2.1218,2.1257,2.1263,2.1267,2.1278,2.1284,2.1291,2.1326,2.1311,2.1314,2.132,2.1357,2.1364,2.1366,2.1377,2.1386,2.1387,2.1388,2.1388,2.1381,2.138,0,0,0,0,0,0,2.1207,2.1215,2.1255,2.1258,2.1244,2.1278,2.1285,2.1292,2.1326,2.1332,2.1319,2.1321,2.1362,2.1365,2.1368,2.1359,2.1387,2.1388,2.1389,2.1382,2.1381,2.138,0,0,0,0,0,0,2.1205,2.121,2.1253,2.1238,2.1244,2.1278,2.1286,2.1292,2.13,2.1332,2.1339,2.132,2.1362,2.1367,2.1371,2.1361,2.1389,2.139,2.1383,2.1382,2.1381,2.1339,0,0,0,0,0,0,2.1204,2.1209,2.1205,2.1237,2.1245,2.1255,2.1285,2.1293,2.1302,2.1306,2.1335,2.134,2.1363,2.1369,2.1372,2.1363,2.139,2.1384,2.1382,2.1381,2.1342,2.1337,2.1333,0,0,0,0,0,2.1202,2.119,2.1205,2.1209,2.1241,2.1255,2.1259,2.1286,2.1301,2.1297,2.1318,2.1339,2.1362,2.1369,2.1373,2.1364,2.1385,2.1383,2.1381,2.1344,2.1338,2.1333,0,0,0,0,0,0,2.1155,2.1195,2.1211,2.121,2.1229,2.1262,2.1259,2.1279,2.1293,2.1296,2.1329,2.1335,2.1336,2.1351,2.1358,2.1356,2.1376,2.1375,2.1347,2.1341,2.1337,2.1333,2.1391,0,0,0,0,0,2.1145,2.1153,2.1188,2.1184,2.1192,2.1224,2.1231,2.1251,2.1271,2.1278,2.13,2.1318,2.133,2.1336,2.1348,2.1344,2.1352,2.134,2.1336,2.1332,2.133,2.1331,2.1326,2.1374,2.1374,2.1374,0,0,2.1123,2.1146,2.1149,2.1175,2.1191,2.12,2.123,2.1236,2.1243,2.1279,2.1285,2.1302,2.1325,2.1325,2.1326,2.1337,2.1319,2.1329,2.1326,2.1327,2.1328,2.1324,2.132,2.1373,2.1373,2.1373,0,0,2.1088,2.1106,2.1106,2.1122,2.1148,2.1169,2.1169,2.12,2.1213,2.122,2.1248,2.1256,2.1275,2.129,2.13,2.1274,2.1295,2.1277,2.1253,2.1254,2.125,2.1247,2.1238,2.1235,2.1276,2.1276,2.1275,0,2.1058,2.1072,2.1103,2.1109,2.1119,2.1154,2.1155,2.1169,2.1196,2.1203,2.1215,2.1241,2.1258,2.1264,2.1258,2.1265,2.1266,2.1274,2.1248,2.1245,2.1243,2.1235,2.1232,2.1273,2.1274,2.1274,2.1274,0,2.1034,2.1043,2.104,2.1067,2.1078,2.108,2.1112,2.1119,2.1139,2.1159,2.1166,2.1189,2.1207,2.121,2.1228,2.1219,2.1225,2.1242,2.1263,2.1235,2.1229,2.1226,2.127,2.1271,2.1272,2.1272,0,0,2.0969,2.1016,2.1014,2.1028,2.106,2.1067,2.1072,2.1091,2.1097,2.1116,2.1121,2.1137,2.1154,2.1166,2.1186,2.1186,2.1166,2.1204,2.1205,2.1196,2.1158,2.1145,2.1141,2.118,2.1179,2.1179,2.1156,0,2.094,2.0952,2.0981,2.0984,2.0993,2.1028,2.1032,2.1052,2.1072,2.1083,2.1104,2.1115,2.1136,2.1144,2.1145,2.1168,2.1158,2.117,2.1185,2.1185,2.1179,2.1138,2.1124,2.1101,2.1154,2.1153,2.1153,0,2.0907,2.0926,2.0929,2.0963,2.0968,2.0971,2.0992,2.1002,2.1026,2.1041,2.1055,2.1078,2.1086,2.1106,2.1117,2.1124,2.1132,2.1144,2.1144,2.1146,2.1167,2.114,2.1095,2.1092,2.1149,2.1149,2.115,0,2.0861,2.0886,2.0893,2.0903,2.0942,2.0944,2.096,2.0985,2.0995,2.1013,2.1021,2.1039,2.1049,2.1063,2.1091,2.1102,2.1099,2.1121,2.1112,2.1111,2.1109,2.1109,2.1066,2.1114,2.1114,2.1114,2.1114,0,2.0826,2.0827,2.0873,2.0876,2.0879,2.0913,2.0915,2.0934,2.0956,2.0965,2.0995,2.1002,2.1039,2.105,2.1072,2.1079,2.1083,2.1095,2.1101,2.1093,2.1091,2.1098,2.1101,2.1113,2.1113,2.1113,2.1114,0,2.0774,2.0805,2.0814,2.0851,2.086,2.0861,2.0892,2.0898,2.092,2.093,2.0934,2.0969,2.0984,2.1014,2.1037,2.1052,2.1054,2.1064,2.1046,2.105,2.1039,2.104,2.0999,2.0996,2.1045,2.1045,2.1044,0,2.075,2.0752,2.079,2.0798,2.0814,2.0826,2.0838,2.0872,2.0882,2.0911,2.0913,2.0931,2.0947,2.097,2.0997,2.1015,2.1026,2.1011,2.1029,2.1021,2.1027,2.1027,2.1028,2.1006,2.1006,2.1005,2.1004,0,2.0704,2.0719,2.0735,2.0756,2.077,2.0788,2.0807,2.0812,2.0851,2.0861,2.0878,2.0891,2.0916,2.0933,2.0956,2.0972,2.0995,2.0999,2.0998,2.0989,2.0979,2.0986,2.1035,2.0999,2.1,2.1,2.1001,2.1001,2.0666,2.067,2.0698,2.0715,2.0734,2.0752,2.0759,2.0783,2.0798,2.0822,2.0841,2.0856,2.0882,2.0915,2.093,2.0943,2.0954,2.0952,2.0952,2.0951,2.0948,2.0977,2.0947,2.0947,2.0947,2.0948,2.0948,0,2.0622,2.0642,2.0658,2.0685,2.0699,2.072,2.0744,2.0754,2.0767,2.079,2.0806,2.0826,2.0844,2.0873,2.0893,2.0898,2.0909,2.0902,2.0902,2.0906,2.0937,2.0936,2.0893,2.0893,2.0893,2.0893,2.0893,2.0893,2.0601,2.061,2.0629,2.0648,2.0668,2.0685,2.0696,2.0714,2.0732,2.0754,2.0769,2.0789,2.0814,2.0837,2.0855,2.0863,2.0869,2.0859,2.0871,2.0899,2.0904,2.0909,2.0908,2.086,2.086,2.084,2.0839,2.0839]}]]